#timestamp,LO_Frequency,Hit,StdDev 
1502326815.5,286047002.5,N,1.1
1502326835.3,286047001.8,N,1.1
1502326855.1,286047001.5,N,1.0
1502326875.9,286047002.7,N,1.0
1502326895.7,286047001.9,N,1.0
1502326915.6,286047002.0,N,1.0
1502326935.4,286047002.3,N,1.0
1502326955.2,286047001.3,N,1.0
1502326975.1,286047004.3,Y,0.0
1502326976.0,286047004.3,P,1.3
1502326995.8,286047000.1,N,1.7
1502327015.7,286047001.8,N,1.5
1502327035.5,286047001.1,N,1.4
1502327055.4,286047000.6,N,1.3
1502327075.2,286047000.5,N,1.3
1502327095.0,286047000.3,N,1.3
1502327095.9,286047000.3,N,1.2
1502327115.8,286046999.7,N,1.3
1502327135.6,286047000.1,N,1.2
1502327155.5,286047002.4,N,1.2
1502327175.3,286047000.0,N,1.2
1502327195.1,286047000.5,N,1.2
1502327215.9,286046998.4,N,1.3
1502327235.7,286047000.8,N,1.3
1502327255.6,286046999.9,N,1.3
1502327275.4,286046999.7,N,1.2
1502327295.2,286047000.2,N,1.2
1502327315.1,286047000.9,N,1.2
1502327316.0,286047000.9,N,1.2
1502327335.8,286047000.0,N,1.1
1502327355.7,286047002.7,N,1.2
1502327375.5,286047002.2,N,1.2
1502327395.3,286047001.8,N,1.2
1502327415.2,286047002.5,N,1.2
1502327435.0,286047000.0,N,1.2
1502327435.9,286047000.0,N,1.2
1502327455.8,286047001.6,N,1.2
1502327475.6,286047002.2,N,1.2
1502327495.4,286047001.7,N,1.2
1502327515.3,286047001.4,N,1.0
1502327535.1,286047002.3,N,1.0
1502327555.9,286047001.5,N,1.0
1502327575.7,286047002.1,N,1.0
1502327595.5,286047002.7,N,1.1
1502327615.4,286047001.9,N,1.1
1502327635.2,286047003.8,Y,0.0
1502327655.1,286047001.7,P,0.3
1502327656.0,286047001.7,P,0.3
1502327675.8,286047003.5,P,0.9
1502327695.6,286047004.1,Y,0.0
1502327715.5,286047000.2,P,0.9
1502327735.3,286047000.9,N,0.7
1502327755.2,286047000.8,N,0.6
1502327775.9,286046998.6,N,1.1
1502327795.7,286046998.9,N,1.2
1502327815.6,286047000.7,N,1.1
1502327835.4,286047000.8,N,1.0
1502327855.2,286047000.8,N,1.0
1502327875.1,286047000.4,N,0.9
1502327876.0,286047000.4,N,0.9
1502327895.8,286046999.9,N,0.9
1502327915.7,286046998.2,N,1.0
1502327935.5,286047000.7,N,1.0
1502327955.3,286047000.6,N,1.0
1502327975.2,286046999.9,N,0.9
1502327995.0,286047000.7,N,0.9
1502327995.9,286047000.7,N,0.9
1502328015.8,286046998.9,N,0.9
1502328035.6,286046998.4,N,1.0
1502328055.4,286046999.2,N,1.0
1502328075.3,286046999.4,N,1.0
1502328095.1,286046999.0,N,1.0
1502328115.9,286046998.7,N,1.0
1502328135.7,286047001.2,N,1.0
1502328155.5,286046998.4,N,1.0
1502328175.4,286047001.1,N,1.0
1502328195.2,286047001.1,N,1.0
1502328215.0,286047000.0,N,1.0
1502328215.9,286047000.0,N,1.0
1502328235.8,286047002.7,N,1.0
1502328255.6,286047000.6,N,1.1
1502328275.5,286046999.7,N,1.0
1502328295.3,286047002.8,N,1.1
1502328315.1,286047001.0,N,1.1
1502328335.9,286046999.7,N,1.1
1502328355.7,286047000.9,N,1.1
1502328375.6,286047000.0,N,1.1
1502328395.4,286047000.3,N,1.1
1502328415.2,286047000.6,N,1.1
1502328435.1,286047002.8,N,1.2
1502328436.0,286047002.8,N,1.3
1502328455.8,286047002.1,N,1.3
1502328475.7,286046999.7,N,1.3
1502328495.5,286047002.3,N,1.3
1502328515.3,286047002.8,N,1.4
1502328535.2,286047002.5,N,1.4
1502328555.0,286046998.3,N,1.5
1502328555.9,286046998.3,N,1.5
1502328575.8,286047000.4,N,1.4
1502328595.6,286047000.4,N,1.4
1502328615.4,286047001.5,N,1.4
1502328635.3,286047002.4,N,1.4
1502328655.1,286047001.3,N,1.3
1502328675.8,286047001.9,N,1.4
1502328695.7,286046999.8,N,1.3
1502328715.5,286047000.6,N,1.3
1502328735.4,286046999.9,N,1.3
1502328755.2,286047002.5,N,1.3
1502328775.0,286047000.9,N,1.3
1502328775.9,286047000.9,N,1.3
1502328795.8,286047000.4,N,1.3
1502328815.6,286047002.7,N,1.3
1502328835.5,286046999.7,N,1.3
1502328855.3,286047002.5,N,1.3
1502328875.1,286046999.9,N,1.3
1502328895.9,286047002.6,N,1.3
1502328915.7,286046999.8,N,1.3
1502328935.6,286047000.0,N,1.3
1502328955.4,286047001.9,N,1.3
1502328975.2,286046999.7,N,1.3
1502328995.1,286047002.1,N,1.3
1502328996.0,286047002.1,N,1.3
1502329015.8,286047001.4,N,1.3
1502329035.7,286047001.9,N,1.3
1502329055.5,286047001.8,N,1.2
1502329075.3,286047004.4,Y,0.0
1502329095.2,286047000.9,P,0.1
1502329115.0,286047000.5,P,0.2
1502329115.9,286047000.5,N,0.2
1502329135.8,286047002.7,Y,0.0
1502329155.6,286047000.7,P,0.0
1502329175.4,286047000.7,P,0.0
1502329195.3,286047000.5,P,0.1
1502329215.1,286047002.4,Y,0.0
1502329235.9,286046998.1,P,1.3
1502329255.7,286047000.5,N,1.2
1502329275.6,286046999.9,N,1.0
1502329295.4,286047000.4,N,0.9
1502329315.2,286046998.1,N,1.1
1502329335.1,286047000.4,N,1.0
1502329336.0,286047000.4,N,1.0
1502329355.8,286046998.2,N,1.1
1502329375.7,286047001.0,N,1.1
1502329395.5,286046998.2,N,1.1
1502329415.3,286046998.5,N,1.1
1502329435.2,286047000.9,N,1.2
1502329455.0,286047000.7,N,1.1
1502329455.9,286047000.7,N,1.1
1502329475.7,286047001.2,N,1.1
1502329495.6,286046998.6,N,1.2
1502329515.4,286047000.6,N,1.1
1502329535.3,286047000.3,N,1.1
1502329555.1,286047002.3,N,1.2
1502329575.8,286047000.1,N,1.2
1502329595.7,286047000.2,N,1.2
1502329615.5,286047000.1,N,1.1
1502329635.4,286047000.7,N,1.1
1502329655.2,286047000.9,N,1.1
1502329675.0,286047000.2,N,1.1
1502329675.9,286047000.2,N,1.1
1502329695.8,286046999.9,N,1.0
1502329715.6,286047000.3,N,1.0
1502329735.5,286047000.4,N,1.0
1502329755.3,286047001.1,N,1.0
1502329775.1,286047000.4,N,1.0
1502329795.9,286046998.6,N,1.0
1502329815.7,286047000.9,N,1.0
1502329835.6,286046998.2,N,1.1
1502329855.4,286046999.8,N,1.0
1502329875.2,286047001.6,N,1.0
1502329895.1,286047002.1,N,1.1
1502329896.0,286047002.1,N,1.1
1502329915.8,286047000.3,N,1.1
1502329935.7,286047002.8,N,1.1
1502329955.5,286047000.0,N,1.0
1502329975.3,286047000.9,N,1.0
1502329995.2,286047000.5,N,1.0
1502330015.0,286047000.0,N,1.0
1502330015.9,286047000.0,N,1.0
1502330035.8,286047002.7,N,1.0
1502330055.6,286047000.1,N,1.0
1502330075.4,286046999.7,N,1.0
1502330095.3,286046999.7,N,1.0
1502330115.1,286047000.2,N,1.0
1502330135.8,286047000.4,N,1.0
1502330155.7,286047001.0,N,1.0
1502330175.5,286047002.3,N,1.0
1502330195.4,286047002.6,N,1.1
1502330215.2,286047002.6,N,1.2
1502330235.0,286047001.3,N,1.2
1502330235.9,286047001.3,N,1.2
1502330255.8,286047004.3,Y,0.0
1502330275.6,286047002.6,P,0.9
1502330295.5,286047002.0,N,0.7
1502330315.3,286047000.1,N,1.0
1502330335.1,286047001.7,N,0.9
1502330355.9,286047002.3,N,0.9
1502330375.7,286047001.7,N,0.8
1502330395.6,286047002.6,Y,0.0
